Starlink 35845

operational
NORAD ID: 66348 Int'l Des: 2025-254 Owner: SPXS Country: US Constellation: starlink
LEOCIRCULAR

About Starlink 35845

Description loading...

Live Position

Loading 3D Globe...

Upcoming Passes

Altitude History

Altitude vs Time

uPlot chart will show altitude changes over time

Two-Line Element Set

1 66348C 25254U 25311.11368056 .00522340 00000+0 77332-3 0 3115
2 66348 53.1599 93.7436 0009183 263.6802 97.2672 16.03587278 12
Epoch: Nov 7, 2025 • Age: 18 hours

Current Status

Altitude 264.4 km
Velocity 7.75 km/s
Sub-Earth Point 15.02°N, 63.59°W
Launch Date Nov 6, 2025
Age 1 days
Type internet

Technical Details

Classification Payload
Mass 575.00 kg
Dry Mass 530.00 kg
Total Mass 575.00 kg
Length 0.30 m
Diameter 4.10 m
Span 29.00 m
Shape Box + pan
Manufacturer SPXS
Bus Type Starlink V2MO
Phase Status In Orbit
Owner/State SPXS/US

Large Constellations

Loading constellations...